Theta_e
283 283 283 283 282 281 281 281 280 280 280 280 280 280 279 280 279 279 278 277 277 277 276 276 276 276 275 275 275 275 274 274 274 274 273 273 273 273 273 273 273 272 273 273 273 273 273 272 272 272 272 272 272 272 272 272 272 273 273 272 272 271 271 269 268 268 271 272 271 272 272 273 272 273 272 272 272 273 275 273 273 273 273 273 274
283 283 283 283 282 281 281 280 280 280 280 280 279 279 279 279 278 278 277 277 277 276 276 276 276 275 275 275 275 275 275 274 273 273 273 273 272 273 273 272 272 272 272 272 272 273 272 271 272 271 272 271 271 271 271 271 271 270 271 271 271 271 271 270 268 268 268 271 271 272 271 273 271 273 272 271 272 273 272 273 273 273 273 273 273
283 283 283 282 281 281 280 280 280 279 279 279 279 279 278 278 278 277 277 276 276 276 276 275 275 275 274 274 274 274 273 273 272 272 272 272 272 272 272 272 272 271 271 271 271 271 271 271 271 271 271 271 271 271 271 271 271 270 270 271 270 271 271 271 269 267 268 269 271 270 271 272 271 271 272 272 273 273 272 272 273 274 274 274 274
283 283 282 282 281 280 280 280 279 279 279 278 278 278 277 277 277 277 276 276 276 275 275 275 275 274 274 273 273 273 272 272 272 272 272 272 272 272 272 272 271 271 271 271 271 270 270 270 270 270 270 270 270 270 271 271 270 270 270 270 271 270 271 270 271 270 269 268 269 270 271 271 271 272 273 273 272 272 273 273 273 273 274 274 274
283 282 282 281 281 280 279 279 279 279 278 278 278 277 277 277 276 276 276 276 276 276 276 275 275 274 274 273 273 272 272 272 272 272 272 272 272 272 272 271 271 271 271 271 273 270 270 269 270 270 269 269 269 270 270 270 270 270 270 270 270 271 271 271 270 270 269 268 268 270 272 271 272 272 272 272 272 273 273 273 273 274 274 274 275
283 282 282 281 280 280 279 279 279 279 278 278 277 277 276 276 276 277 277 276 276 276 276 275 275 275 274 273 273 272 272 272 272 272 271 272 272 272 271 271 271 271 270 270 270 270 269 269 270 269 269 268 268 269 269 269 269 269 269 269 270 270 271 270 271 270 270 269 270 269 271 270 270 272 272 272 272 271 272 273 274 275 274 274 275
282 282 281 281 280 280 279 279 279 278 278 277 277 277 276 276 276 276 277 276 276 276 275 274 274 274 274 273 272 272 272 271 271 272 272 272 272 272 271 271 271 271 270 270 269 269 269 269 269 269 269 269 269 268 268 268 269 268 269 269 271 270 270 270 270 270 270 270 270 270 270 271 272 270 273 274 274 273 272 272 272 274 274 274 274
282 282 281 281 280 280 280 279 279 278 278 277 277 277 277 276 276 277 277 276 276 276 275 275 274 274 274 273 272 271 271 271 272 272 272 271 271 271 271 271 271 270 270 269 269 269 269 269 269 269 269 269 269 269 269 269 269 269 270 270 269 270 268 269 269 270 269 269 270 270 271 271 271 273 274 274 273 273 274 273 271 272 273 274 275
282 281 281 281 281 281 280 279 279 278 277 277 277 277 277 277 277 276 276 276 276 276 276 275 274 273 273 273 272 272 272 271 272 272 271 271 272 271 271 270 270 270 269 269 269 268 268 268 269 269 270 274 276 276 275 275 271 267 269 269 268 268 268 267 268 269 270 270 270 271 271 271 271 272 272 272 271 271 272 273 272 273 273 272 273
282 281 281 281 281 280 280 279 278 278 277 277 277 277 277 277 276 276 276 276 275 275 275 274 274 273 272 272 272 271 271 271 273 276 275 272 272 271 271 270 270 270 269 269 269 269 268 268 269 274 274 274 274 274 275 275 276 274 270 269 268 267 268 268 269 269 270 270 270 271 270 270 272 272 272 272 272 273 272 272 270 271 271 270 271
282 282 281 281 280 279 279 279 279 278 278 278 278 277 277 276 276 276 276 275 274 274 274 274 273 272 272 271 271 271 271 271 276 279 278 277 272 271 271 270 270 270 270 270 269 270 269 269 268 271 272 272 271 273 274 275 274 275 275 276 275 273 271 270 271 272 271 270 271 271 271 271 272 272 271 271 272 272 271 271 270 269 268 266 265
282 282 281 281 280 280 279 279 278 278 278 278 278 277 277 276 275 275 275 274 274 274 273 273 273 272 272 272 272 271 271 274 279 280 280 279 276 273 271 270 271 271 271 270 270 270 270 269 269 269 268 268 269 270 271 272 273 274 275 275 275 276 277 275 273 272 272 271 271 272 271 271 270 271 271 271 270 270 270 269 269 268 267 266 267
282 281 281 281 280 280 279 279 278 278 278 278 277 277 276 276 275 275 274 274 273 273 274 273 272 272 272 272 271 272 271 277 281 281 281 280 278 274 271 271 271 271 271 271 270 270 270 269 268 269 268 271 270 268 267 267 271 274 274 275 276 277 277 278 278 276 275 273 272 271 271 271 270 270 271 271 271 269 268 268 268 268 267 267 266
282 282 281 281 280 280 279 279 278 278 278 277 277 276 275 275 275 275 274 274 273 273 273 273 273 272 272 272 271 271 270 276 281 282 282 281 281 277 273 272 272 271 271 271 271 271 270 269 267 267 267 267 267 268 268 267 267 268 269 269 270 273 276 277 277 277 276 274 272 270 271 272 270 270 271 272 269 268 267 266 267 267 266 266 267
282 282 281 280 280 280 279 278 278 278 277 277 276 276 275 275 275 275 274 274 273 273 273 273 272 272 272 272 271 271 270 277 281 282 282 282 282 280 274 274 272 272 271 271 271 271 270 268 267 267 267 267 268 269 267 268 268 269 270 270 271 272 273 273 274 275 274 273 272 272 272 272 271 271 271 271 270 269 269 268 268 267 267 267 266
281 281 281 281 280 279 279 278 278 277 277 276 276 276 275 275 275 274 274 274 274 274 273 273 272 272 272 271 271 270 270 278 281 282 282 282 283 278 274 274 272 272 271 271 271 270 268 268 267 267 267 267 270 274 274 273 272 271 271 272 273 273 274 276 277 276 275 274 273 272 272 272 274 272 272 271 270 270 270 268 266 265 263 262 261
282 282 281 281 280 279 279 278 278 277 277 276 276 276 275 275 275 274 274 274 273 273 273 272 272 272 271 271 270 271 270 276 280 281 282 282 281 275 274 273 272 271 270 270 269 269 268 268 268 267 267 267 271 274 275 276 274 273 273 272 272 271 272 273 274 275 275 275 274 274 274 274 274 274 273 273 272 271 266 263 261 262 262 260 261
283 282 282 281 281 279 279 278 278 277 276 276 276 276 276 276 275 275 274 274 273 273 273 272 272 272 271 270 271 271 270 273 280 281 281 282 280 273 273 272 272 270 269 269 268 268 268 271 270 268 268 268 273 275 276 275 274 274 273 271 270 269 270 270 267 269 272 271 271 271 271 271 271 271 270 271 272 271 264 260 263 264 262 262 260
283 283 282 282 281 280 279 278 278 277 277 277 277 276 276 276 276 274 274 275 274 273 272 272 271 271 270 270 272 271 270 272 279 280 281 281 279 273 273 271 270 269 268 267 268 267 267 270 272 272 270 270 274 275 276 276 275 274 272 270 269 268 268 268 266 266 267 266 264 263 263 266 265 264 265 269 270 269 266 265 265 263 262 262 262
284 284 283 282 281 280 279 279 278 278 277 277 277 277 277 276 275 274 274 274 273 272 271 271 270 270 269 268 269 270 269 268 273 280 280 281 281 274 273 270 269 268 267 266 265 265 266 266 270 274 275 276 276 277 277 278 276 272 270 269 268 268 268 266 267 268 265 263 261 260 262 263 263 263 263 264 265 265 266 266 265 264 262 262 262
284 284 283 282 281 280 280 279 279 279 278 278 278 276 276 275 274 273 272 271 270 270 270 269 269 269 268 267 267 267 267 266 268 279 280 281 281 277 272 271 270 268 267 267 266 265 264 266 265 271 274 275 276 277 277 278 278 272 271 268 269 271 268 265 265 267 261 258 257 258 259 259 260 261 262 263 263 264 265 266 265 265 264 262 262
283 283 282 281 281 280 280 279 279 278 277 276 275 274 273 273 272 271 270 270 270 269 268 268 268 268 267 266 265 264 266 268 264 274 279 280 281 280 273 272 271 268 267 266 265 265 265 266 266 270 274 275 276 277 277 278 278 272 271 275 276 274 266 265 262 258 256 255 255 256 255 256 257 258 260 261 262 263 264 264 265 265 265 265 263
282 282 281 281 280 279 279 278 278 277 275 275 274 274 272 271 270 270 269 269 269 268 268 267 267 267 266 265 264 263 263 264 270 267 276 280 280 281 279 274 275 270 267 266 266 266 267 267 268 272 274 275 276 277 277 278 277 272 275 275 275 272 267 261 260 255 254 255 255 255 256 256 256 258 259 260 262 263 264 264 264 265 265 265 266
281 281 280 279 278 278 277 277 276 276 275 274 274 273 271 271 269 269 269 269 268 268 268 266 265 265 266 265 264 263 263 262 267 271 270 277 279 280 280 279 277 272 269 268 268 268 267 268 269 273 275 275 276 277 277 278 274 274 275 275 272 269 260 257 256 255 256 255 254 254 255 256 257 258 259 260 262 263 263 264 264 264 264 264 265
280 279 279 278 277 277 276 276 275 275 274 274 273 273 270 269 269 267 267 268 267 267 267 265 265 265 265 265 265 264 263 263 262 266 272 273 277 279 279 280 280 278 273 271 270 269 271 273 274 275 275 276 277 277 276 274 273 273 273 272 268 257 254 254 254 253 253 254 255 256 255 257 258 260 261 262 262 263 262 262 262 262 262 262 263
278 278 278 277 277 276 275 275 274 274 273 274 274 273 271 269 270 268 267 267 267 267 268 265 265 265 265 266 266 266 264 262 262 262 267 271 273 276 278 279 279 279 277 272 273 274 275 275 276 276 276 276 274 270 267 268 271 272 271 268 256 254 253 252 253 253 254 254 255 256 256 257 258 260 261 261 259 259 259 259 259 260 259 260 260
278 277 277 276 275 275 275 274 273 272 271 271 271 271 271 269 269 268 267 267 267 267 267 266 265 265 265 266 266 264 263 263 262 261 261 263 266 270 273 275 278 278 277 276 275 274 275 275 274 276 274 275 272 271 270 270 264 262 259 257 253 254 254 254 253 254 255 255 255 256 256 257 258 258 257 257 257 258 259 259 258 259 259 259 258
277 276 275 275 274 273 274 270 271 271 270 270 270 269 269 269 269 269 267 268 267 267 267 267 266 266 266 267 266 262 263 263 262 262 262 262 264 266 269 270 272 274 274 275 275 273 272 274 274 268 268 266 264 260 258 257 257 257 255 253 254 255 259 263 263 259 258 256 255 255 255 255 254 255 256 256 256 257 258 257 257 259 258 258 257
275 273 273 272 272 271 272 271 271 271 269 269 270 271 270 269 270 270 270 270 270 270 269 269 268 269 268 268 266 265 264 264 265 268 266 269 266 265 266 268 269 271 274 275 271 270 269 267 265 264 264 264 263 260 257 254 254 254 254 252 251 250 252 252 252 254 253 253 254 254 255 253 254 255 256 257 257 258 259 257 257 256 258 256 255
271 271 271 271 270 269 269 269 269 269 268 268 268 267 268 272 271 270 270 272 274 275 275 270 270 268 268 268 268 268 268 269 271 272 273 273 273 273 271 272 273 271 273 277 273 268 267 266 265 265 265 264 263 262 260 256 255 254 252 259 256 252 253 253 252 254 254 253 254 253 254 254 255 256 257 258 259 257 259 262 258 255 255 256 256
271 269 268 270 269 269 269 268 267 268 267 267 266 267 265 267 275 276 275 273 274 276 277 277 277 275 269 267 268 274 275 274 274 274 275 275 275 275 275 274 275 275 275 274 272 268 266 265 265 265 265 265 265 264 263 259 258 255 255 253 253 255 257 254 253 253 254 253 254 253 253 255 256 257 257 258 258 259 258 256 254 255 254 255 255
272 271 269 269 268 267 267 266 266 265 265 264 265 265 266 266 266 272 276 276 276 275 276 277 277 277 277 273 267 264 272 275 276 276 276 277 277 276 276 276 276 276 276 276 270 269 268 266 266 266 265 265 264 264 263 261 260 258 256 253 254 253 254 254 255 253 253 252 252 253 253 255 256 257 258 258 259 259 258 257 255 254 255 254 255
270 267 265 265 265 266 265 265 265 265 265 264 263 264 265 265 267 267 268 275 277 277 277 277 277 277 278 278 277 273 271 273 275 276 277 277 277 277 277 277 277 277 277 273 270 268 268 268 267 267 266 265 265 263 262 261 259 257 256 254 255 253 255 256 257 255 253 254 253 254 255 255 255 257 258 258 258 257 258 257 256 254 254 255 256
266 266 266 266 265 265 265 265 265 265 265 264 264 264 264 265 265 265 263 261 266 272 276 277 277 277 278 278 278 278 277 275 275 276 277 277 278 278 278 276 278 278 276 271 271 269 269 268 267 267 266 265 264 262 261 259 257 256 254 254 256 255 254 252 253 253 252 253 253 253 253 253 255 255 256 256 257 258 257 257 256 255 254 255 256
265 265 265 265 265 265 265 265 264 264 263 263 263 263 264 261 262 262 263 264 265 265 266 269 275 277 275 276 278 278 278 277 276 276 277 277 278 278 278 274 273 274 274 273 271 271 269 267 266 266 265 263 262 261 260 259 256 254 255 255 253 254 254 252 252 253 252 251 251 251 252 254 252 254 256 255 255 255 256 256 256 255 255 256 257
265 265 263 265 264 264 263 264 263 263 262 262 262 261 261 261 263 262 262 263 263 264 264 265 267 273 277 277 277 277 278 278 277 277 277 278 278 278 273 272 271 272 272 272 271 270 269 267 266 265 264 263 262 260 260 258 257 256 254 253 255 254 252 251 252 251 251 251 252 253 255 254 255 253 251 253 254 255 255 256 256 256 257 257 258
265 265 264 262 262 263 262 261 262 262 266 262 261 260 261 261 261 260 261 262 262 262 264 260 261 263 269 271 274 277 278 278 278 277 277 277 278 276 273 272 272 271 271 271 267 265 265 265 265 265 263 262 261 260 258 257 257 254 256 255 253 253 252 251 251 252 251 250 251 251 250 252 251 250 251 252 254 254 254 255 255 257 257 258 259
263 264 264 261 262 261 260 261 260 264 262 262 261 262 261 261 260 261 261 261 261 262 261 260 264 263 264 266 271 272 274 277 278 277 276 276 275 274 273 272 271 270 270 270 268 266 265 264 263 263 262 261 260 259 257 257 255 254 254 253 253 253 256 256 257 254 252 252 251 250 251 251 250 249 252 253 253 253 254 255 254 254 256 257 256
260 265 267 267 267 264 262 261 261 261 261 261 261 261 260 260 259 259 260 259 259 260 259 259 261 262 264 263 264 268 272 272 272 272 272 272 273 273 273 272 270 270 269 268 266 265 266 265 263 261 261 260 259 258 257 256 254 254 253 252 252 250 253 251 252 252 250 251 251 250 249 250 249 249 250 251 252 253 253 254 255 255 256 256 254
261 261 264 268 265 266 262 261 261 261 261 260 260 259 259 260 260 260 259 259 259 259 260 260 260 262 262 261 264 266 268 269 270 270 271 271 270 267 269 269 268 268 268 267 267 266 265 264 264 261 260 259 258 257 256 255 255 254 252 252 252 252 252 251 251 251 251 250 250 249 249 250 250 249 248 251 252 252 253 254 256 257 255 254 255
261 260 261 266 264 262 261 260 260 261 259 260 260 260 260 260 259 259 258 259 259 259 259 260 260 260 261 264 269 269 267 268 269 269 268 268 267 266 264 265 265 265 265 265 265 264 264 263 262 261 260 259 258 257 255 254 253 253 253 252 251 252 252 250 250 250 250 250 249 249 249 249 249 248 250 251 254 255 255 255 255 254 255 255 255
258 258 260 261 263 260 260 259 259 260 259 258 259 259 259 259 258 258 259 258 259 259 259 259 259 258 262 267 268 271 269 267 266 266 265 265 265 265 264 264 263 264 264 264 263 262 261 261 261 260 259 257 256 255 253 252 253 252 252 252 252 252 251 252 251 250 249 250 249 249 248 249 250 251 252 255 253 252 252 252 252 253 252 253 253
257 257 258 258 258 258 259 259 257 256 256 256 257 258 258 257 257 258 258 258 258 258 258 259 258 258 260 266 267 269 268 266 263 263 264 263 263 263 263 262 261 261 261 261 261 261 261 260 259 258 258 257 257 256 255 254 253 252 252 251 252 251 251 252 250 250 249 248 250 249 249 250 252 250 249 250 251 251 251 251 251 251 251 251 252
256 256 256 257 256 256 256 255 255 256 255 257 257 256 256 256 255 256 256 256 257 257 258 258 258 258 258 261 264 265 265 263 262 262 262 262 262 261 261 260 260 259 258 258 258 257 258 257 257 257 256 256 255 253 254 254 253 252 252 251 251 251 251 251 251 251 251 249 249 250 249 249 251 250 250 252 249 250 250 249 251 250 251 250 251
253 254 254 254 254 253 254 254 255 254 256 256 254 254 255 255 255 255 256 257 256 256 256 258 258 258 258 259 261 262 263 262 261 261 261 261 260 260 260 260 259 258 257 257 256 255 255 255 256 255 255 255 254 253 252 252 251 252 252 252 251 252 252 252 252 250 250 249 250 250 249 250 249 249 250 250 249 248 250 250 249 252 252 251 250
253 253 254 253 254 254 254 252 255 253 254 254 254 253 253 254 254 254 255 255 256 256 256 257 259 259 258 259 259 260 261 260 260 260 260 261 260 260 260 260 259 258 257 257 256 254 255 255 255 255 255 255 254 253 252 250 251 250 250 251 252 253 253 252 249 248 249 249 250 250 250 249 249 250 251 250 249 249 249 249 248 250 250 251 251
251 252 254 253 253 254 254 253 252 252 252 252 252 252 252 253 253 254 255 255 255 255 255 257 258 258 258 258 258 259 259 259 258 258 258 259 259 259 258 257 256 256 255 255 254 254 254 254 254 253 254 254 252 252 251 250 248 249 250 250 250 251 251 250 250 250 250 250 250 248 250 250 250 249 251 252 250 250 250 250 250 250 250 251 251
251 252 252 253 252 252 252 251 252 256 252 253 253 253 253 253 253 254 253 254 255 256 257 258 258 258 257 257 257 257 257 257 256 256 257 257 257 257 256 255 255 255 254 254 253 253 253 253 252 252 252 252 251 251 251 250 248 249 249 249 249 250 251 251 249 249 249 248 249 249 249 249 249 250 250 250 249 249 249 249 250 250 251 251 252
250 251 251 252 252 252 252 252 253 252 251 251 252 253 253 252 253 253 253 254 254 255 256 256 257 257 257 257 256 256 256 255 255 255 255 256 256 255 255 254 253 253 252 253 253 252 251 251 250 250 250 249 249 249 249 248 249 249 249 249 250 252 252 252 251 249 251 250 249 249 248 249 249 249 250 250 250 249 249 249 249 250 251 251 252
250 251 251 252 252 251 251 251 251 250 251 251 251 251 252 252 251 252 252 253 253 254 255 256 256 256 256 256 255 255 255 254 255 255 255 255 255 255 254 253 252 252 252 252 252 251 250 249 248 248 248 248 248 248 248 249 249 249 248 250 252 253 253 253 253 253 252 250 249 249 249 249 249 249 249 249 249 249 249 249 250 251 251 250 251
252 251 251 251 251 251 250 249 249 249 250 250 250 250 251 251 251 252 253 254 255 256 256 256 255 255 255 255 255 255 255 255 255 255 254 254 254 254 253 252 252 252 251 251 250 250 249 247 247 248 247 248 248 248 248 248 248 249 251 253 253 254 254 254 252 253 254 253 249 249 249 249 249 249 249 249 249 248 249 250 250 250 251 251 252
Wind_Speed
11 11 11 9 10 11 10 9 9 8 9 8 9 9 8 8 9 8 8 8 9 9 10 10 9 9 9 8 8 7 8 7 6 6 6 6 5 6 5 6 7 5 5 4 3 4 4 5 3 2 2 3 3 3 3 2 3 3 3 3 3 2 3 1 3 10 10 1 3 6 6 8 7 5 8 8 8 7 8 7 9 9 9 9 9
11 11 10 10 11 11 10 8 8 8 9 8 8 8 8 8 8 8 9 8 8 10 10 9 9 9 8 7 7 7 7 7 6 6 6 7 6 4 6 6 6 5 4 4 3 3 3 4 3 3 2 3 3 3 2 2 2 2 1 3 1 2 2 1 3 5 13 11 6 4 5 5 9 5 8 11 11 9 10 9 7 7 8 9 9
10 11 11 11 11 9 10 10 9 10 10 8 8 8 7 6 6 8 7 7 4 6 8 8 9 9 8 8 8 7 7 7 6 5 4 6 7 5 5 6 6 6 5 4 3 3 3 3 3 3 2 3 2 1 1 1 0 1 1 0 1 0 1 2 2 6 9 13 7 8 8 8 7 9 9 9 9 9 10 10 9 8 7 8 10
11 11 10 11 11 10 11 10 11 10 10 8 9 7 6 6 6 6 6 6 7 5 4 6 7 8 9 8 8 8 7 7 6 5 5 6 7 7 5 5 5 5 5 4 3 3 3 3 2 2 2 2 1 1 0 0 0 1 1 1 0 2 2 2 4 5 7 11 10 8 9 10 8 7 8 8 10 10 9 10 9 9 9 8 9
11 11 12 13 11 12 11 11 12 12 11 9 9 8 7 7 6 7 8 8 7 8 7 6 7 8 8 9 9 8 8 9 8 7 6 4 6 6 6 5 5 5 5 4 4 3 3 3 2 1 1 2 0 1 1 0 1 1 1 2 1 2 2 3 4 4 6 9 11 7 7 7 8 8 6 11 12 11 10 9 10 11 10 8 8
11 11 11 13 12 13 12 12 13 13 12 10 11 9 8 7 7 7 8 10 8 8 9 7 7 7 7 8 8 8 8 8 9 8 7 6 6 6 6 5 5 5 5 4 3 3 3 2 1 2 2 1 1 1 1 1 1 1 2 2 2 2 3 3 4 5 5 7 8 11 8 9 9 9 9 8 11 12 13 13 11 9 9 10 11
11 11 11 12 12 13 13 13 12 12 11 11 10 9 9 8 7 8 7 8 9 9 8 7 5 6 7 7 7 7 8 8 8 7 8 6 6 6 6 5 5 5 4 4 3 3 3 2 1 2 2 2 1 2 2 2 2 2 2 2 2 2 3 4 3 4 6 8 8 8 10 8 9 12 11 10 11 11 11 12 15 12 8 11 16
11 12 12 12 12 13 12 10 11 10 9 9 10 9 9 8 8 7 7 8 9 9 10 9 7 6 6 6 6 6 7 6 5 5 6 6 6 6 6 6 5 4 4 3 2 2 2 2 2 2 2 1 2 3 3 3 2 2 2 1 2 2 3 3 3 4 6 7 7 9 8 10 9 8 10 11 10 9 10 12 15 17 17 13 10
12 11 11 12 12 10 9 8 8 8 9 9 10 10 10 9 8 8 7 7 7 8 7 8 8 7 6 6 6 5 5 5 5 6 7 7 6 6 5 5 5 5 3 2 1 2 1 1 1 1 2 4 5 4 4 3 3 1 2 1 2 2 2 3 3 5 6 7 8 7 9 9 8 10 11 10 12 14 14 12 13 15 13 16 15
13 12 13 12 9 8 8 7 8 9 10 11 10 10 10 10 9 9 9 7 7 7 7 7 7 8 8 5 5 5 5 4 7 12 10 9 7 6 6 5 4 3 3 3 2 2 2 1 1 3 3 3 3 4 4 4 4 1 2 3 3 2 3 3 5 6 7 7 7 7 8 8 10 10 10 13 14 14 14 13 14 14 15 15 14
13 13 13 10 9 8 8 9 9 10 10 10 8 10 10 8 8 7 6 6 7 7 7 8 7 7 8 10 9 6 6 6 13 13 13 13 8 7 6 5 4 3 3 4 4 3 2 2 2 2 2 2 2 4 3 4 4 5 5 5 4 3 3 5 6 6 6 7 7 7 7 10 11 11 12 13 12 11 12 12 13 14 13 13 16
14 13 11 10 11 12 11 11 10 10 10 9 9 8 7 7 7 7 7 7 6 5 7 7 7 7 7 7 7 6 6 9 15 14 14 14 11 8 6 4 3 4 4 5 5 4 3 3 3 3 2 2 3 2 2 4 4 4 5 5 6 8 9 6 6 6 6 7 6 6 8 10 12 12 11 10 11 12 12 11 12 12 14 13 12
11 11 11 11 11 11 11 11 11 10 9 8 8 8 8 8 7 7 8 7 6 7 9 8 8 7 7 8 8 7 7 13 16 15 14 14 14 10 5 5 4 4 5 5 4 4 4 4 3 2 2 5 2 0 1 2 5 6 5 7 9 10 10 11 13 9 6 6 7 8 7 11 11 10 9 11 13 13 13 12 11 12 11 12 13
12 12 11 11 11 11 11 10 9 9 8 8 8 9 9 10 8 6 6 6 7 6 6 7 6 7 8 8 7 6 8 12 16 15 15 15 14 11 6 6 5 6 6 6 5 5 4 4 3 3 2 2 3 3 2 3 3 4 5 5 6 9 12 15 15 13 10 6 6 8 8 6 7 9 10 11 13 12 12 12 12 11 12 13 15
11 10 11 11 11 10 11 11 11 9 9 9 9 9 10 8 8 8 8 9 9 10 9 10 9 8 7 7 7 8 8 14 16 15 15 16 15 12 7 6 6 6 6 6 6 5 4 4 3 4 3 3 4 4 4 4 4 5 6 7 6 7 7 8 7 5 5 4 5 5 5 6 7 9 10 10 10 10 10 11 11 10 11 11 10
9 9 10 9 10 11 11 10 10 10 10 10 10 10 10 11 11 8 7 7 5 4 4 5 8 8 8 8 7 8 8 16 16 16 16 15 16 7 7 6 6 6 6 7 6 3 3 4 4 4 4 4 7 8 6 5 6 7 8 8 6 6 5 4 6 8 8 8 5 4 5 8 13 11 11 10 9 8 7 6 5 5 8 9 9
11 12 12 12 12 11 11 11 11 11 10 10 11 11 11 10 9 7 9 8 9 9 9 9 8 9 10 10 10 9 8 14 17 16 16 16 12 6 7 6 6 6 6 6 5 4 4 5 5 5 5 5 8 8 8 8 5 8 7 5 3 1 1 3 5 6 7 7 8 11 13 15 15 15 13 14 10 9 4 6 5 5 8 9 10
13 13 14 12 12 11 12 11 11 11 11 13 13 12 10 8 9 9 11 11 11 11 9 8 8 8 10 11 11 11 10 12 17 16 16 17 10 7 6 6 6 6 6 6 4 5 5 11 9 6 6 6 9 9 9 7 7 7 5 2 1 2 3 1 0 1 3 5 8 10 11 12 12 12 12 12 12 9 4 5 6 6 7 7 10
14 15 13 11 11 11 10 11 12 13 13 13 12 13 12 12 9 8 9 9 10 8 8 8 8 7 7 8 7 9 7 10 16 17 17 17 11 7 7 6 7 7 5 6 5 5 5 7 13 10 8 8 11 10 11 10 7 4 3 2 3 3 4 2 1 1 2 4 5 5 6 7 7 5 7 13 12 9 6 5 5 5 7 8 8
12 8 9 11 10 11 11 13 13 14 14 12 10 10 8 7 9 11 9 8 8 7 7 7 9 8 6 6 7 8 6 7 10 18 18 18 17 9 7 8 9 8 6 6 6 4 5 5 9 13 13 12 12 13 12 12 6 4 4 3 2 5 2 3 2 1 1 2 4 3 5 6 6 6 5 6 6 5 6 5 4 4 6 7 8
8 10 9 10 11 13 12 13 14 13 12 12 11 9 8 9 8 8 9 7 6 6 8 7 7 7 5 6 5 6 5 6 9 16 17 18 18 15 8 9 8 7 7 7 6 6 6 6 5 10 12 12 11 12 13 12 11 5 4 4 4 3 7 3 1 2 1 2 2 3 4 4 5 4 4 5 5 5 4 6 4 4 5 6 7
9 9 11 11 11 12 12 10 11 10 8 8 9 8 6 6 7 7 6 6 7 8 6 6 7 7 5 5 6 6 5 7 6 12 17 18 19 20 11 10 9 7 7 7 6 7 7 6 5 9 13 12 12 13 14 12 13 5 5 6 11 2 6 2 3 1 1 2 4 5 5 5 5 5 5 4 5 5 5 5 5 5 5 6 6
10 10 10 10 10 11 10 11 10 8 9 10 11 10 8 8 7 7 7 7 8 8 8 7 7 7 6 6 5 6 6 6 11 9 14 18 19 20 18 11 17 9 9 9 9 7 4 6 7 12 12 13 12 14 14 16 7 5 6 7 9 6 5 3 1 2 3 2 3 6 5 5 5 6 6 5 5 5 5 5 5 5 5 6 7
8 9 8 9 8 8 9 9 9 8 9 9 9 9 8 8 7 8 8 8 8 8 8 7 6 7 9 8 7 7 6 6 9 14 11 16 18 19 21 19 18 10 9 8 6 6 6 6 7 14 14 13 15 14 15 13 5 7 6 8 2 5 2 1 1 1 1 2 4 5 5 5 4 5 5 5 6 7 7 6 6 6 6 6 7
8 8 8 8 9 8 8 8 9 8 8 10 10 9 8 8 8 6 8 8 8 9 8 7 9 9 8 9 9 7 7 7 7 11 16 15 17 18 20 21 20 19 10 8 8 7 9 13 15 15 14 14 15 16 8 6 5 3 3 3 5 2 1 1 1 0 2 5 6 5 5 5 5 6 7 7 7 7 6 5 4 5 6 6 6
9 9 8 8 8 8 9 7 7 7 8 8 10 9 11 10 10 9 8 9 9 10 9 8 9 9 10 10 9 9 7 7 8 7 8 10 12 17 20 21 21 21 17 9 15 16 17 16 17 16 15 14 6 3 4 3 4 3 2 6 3 2 2 2 1 3 5 4 4 6 6 4 5 6 6 6 5 6 5 6 6 6 4 6 8
9 8 8 8 7 8 9 8 7 7 7 7 7 7 8 8 8 9 9 9 9 9 9 9 9 10 11 12 9 6 7 8 8 6 7 7 8 10 12 13 18 19 14 10 12 12 13 13 9 12 7 9 8 6 5 4 2 3 2 3 2 3 3 4 4 5 3 4 5 5 4 5 5 5 5 4 6 6 5 5 6 6 6 6 6
9 9 9 7 7 8 8 9 10 8 8 9 9 7 7 9 10 12 12 13 12 11 11 11 12 12 12 11 8 7 8 8 9 9 9 10 11 10 9 8 9 9 10 9 7 6 6 6 8 1 3 3 4 3 1 1 2 3 2 1 2 3 5 6 5 2 3 3 4 3 4 4 5 5 5 5 5 6 5 5 4 6 5 5 6
6 6 6 6 7 7 7 8 9 9 8 8 8 10 12 12 12 11 10 10 12 14 13 13 12 11 11 11 10 10 9 11 15 12 14 14 12 11 11 11 10 9 10 10 5 4 5 5 4 4 6 6 6 5 3 2 1 0 1 2 2 3 2 1 3 5 4 1 4 5 5 5 5 4 5 6 6 5 5 5 5 4 6 2 4
6 6 7 7 7 7 7 7 7 8 8 9 8 7 6 8 9 9 9 10 15 14 10 11 9 7 9 10 9 13 14 10 3 13 19 18 19 19 15 13 13 10 11 17 9 6 6 6 7 7 7 7 7 7 7 6 5 3 4 4 5 4 4 4 4 5 3 3 4 4 5 4 5 5 5 5 7 5 5 6 5 3 3 5 7
6 6 7 8 9 9 8 8 7 7 7 7 7 8 7 6 12 16 12 9 13 17 19 18 13 11 10 9 8 15 15 9 9 14 18 20 20 20 20 19 19 18 18 11 10 9 8 8 8 8 8 8 8 8 7 7 7 4 6 4 3 5 5 4 6 5 4 4 4 4 4 4 5 4 5 5 6 6 5 3 3 4 5 5 5
9 9 8 5 7 6 6 5 6 6 6 6 7 7 7 8 8 11 17 16 15 15 16 17 17 17 16 13 8 7 13 17 16 14 16 19 21 21 21 21 21 20 20 20 10 9 9 9 8 9 8 8 8 6 6 6 6 6 4 2 5 5 6 7 5 5 4 4 5 5 4 4 5 5 5 6 6 6 6 6 5 5 5 5 5
5 3 3 4 4 5 5 6 6 6 7 8 7 7 8 8 10 7 4 13 17 17 18 18 19 19 19 21 19 14 13 14 17 18 17 18 20 20 21 22 21 21 20 15 11 10 8 9 9 8 8 9 8 7 7 7 7 6 5 6 6 5 6 6 3 5 5 6 4 5 5 5 5 6 6 6 5 6 6 6 5 6 5 5 6
4 6 6 7 7 6 7 6 7 7 6 5 6 6 7 6 6 3 1 2 5 11 16 20 20 19 21 22 21 20 18 17 18 19 19 19 20 20 20 16 21 23 20 12 11 11 9 9 9 8 8 8 7 7 7 6 6 5 5 5 6 4 5 3 3 5 5 5 5 4 4 5 5 4 5 4 5 5 6 7 6 6 6 5 6
5 5 8 7 6 6 6 5 5 5 5 6 6 6 6 4 4 5 6 7 8 8 6 7 13 19 16 14 18 20 20 19 18 18 20 19 20 20 20 12 12 12 14 12 10 9 8 10 9 8 7 8 7 7 8 7 6 6 6 6 5 5 5 4 6 5 5 5 5 5 5 5 5 6 5 5 5 6 6 6 6 5 6 6 6
4 3 3 5 5 4 5 4 5 5 5 5 4 4 4 4 6 6 5 5 6 7 7 5 4 8 18 20 19 18 20 20 18 18 18 20 20 20 12 10 9 10 10 11 10 10 8 8 8 7 7 7 6 6 6 7 7 6 5 6 6 6 6 6 6 6 4 5 6 5 5 5 6 5 4 5 6 7 6 6 6 6 6 6 6
4 4 3 3 3 4 4 4 4 4 5 5 5 5 5 5 6 5 6 6 7 7 8 4 3 5 6 7 11 16 20 19 18 18 18 18 21 15 10 10 10 10 10 10 6 5 6 5 5 6 6 7 7 7 6 6 5 5 4 5 5 6 6 5 6 6 5 5 5 5 5 6 5 4 4 5 6 5 6 5 5 7 7 8 8
4 4 5 4 4 4 4 5 4 6 5 6 5 6 6 6 6 6 6 7 7 7 7 5 6 7 8 8 7 7 9 15 19 17 16 17 14 11 10 9 9 9 9 8 7 6 6 5 5 6 6 6 6 6 6 5 5 5 5 4 5 6 7 6 7 6 5 6 5 6 5 5 6 5 5 6 6 6 6 6 5 6 6 8 5
3 5 6 6 5 6 6 5 5 5 5 5 5 6 6 6 5 6 6 6 6 7 7 6 7 7 7 5 5 5 7 8 9 9 9 9 10 10 9 8 8 8 7 7 5 6 6 6 5 5 5 6 6 5 5 5 5 5 5 5 5 5 6 6 6 6 5 6 6 5 5 5 5 5 5 5 6 6 6 6 6 6 7 6 5
5 4 5 6 5 5 6 6 6 6 6 6 6 6 6 6 7 7 6 6 7 7 7 8 8 8 6 4 6 6 8 10 10 8 8 9 9 7 7 7 7 7 7 6 6 6 7 6 6 6 6 6 6 5 5 5 5 6 5 6 6 6 7 6 6 6 6 6 5 5 5 6 6 5 5 5 6 5 6 7 7 6 5 4 6
3 3 4 4 5 4 4 5 5 6 5 6 6 6 7 7 6 6 6 7 6 6 7 7 7 5 5 7 11 11 9 9 8 8 7 7 6 6 5 5 5 5 5 6 6 5 5 5 5 5 5 5 5 6 5 5 5 5 5 6 5 6 6 6 6 6 6 5 5 5 5 5 6 5 6 6 6 6 7 6 5 5 6 5 6
2 2 2 2 3 3 5 5 5 5 5 5 5 6 6 6 5 5 6 6 6 6 7 6 6 5 7 13 13 18 11 8 6 5 6 6 5 5 4 4 3 3 4 4 5 5 5 5 5 5 5 5 5 5 5 5 5 6 6 6 6 6 6 7 6 6 6 6 6 6 5 5 6 6 6 6 6 7 6 5 5 6 6 5 5
1 1 1 1 2 3 4 4 3 3 3 4 5 4 5 4 4 6 5 6 5 6 6 6 5 4 5 10 12 16 9 6 4 5 4 4 3 3 3 3 3 1 0 0 1 3 4 5 5 5 5 6 6 6 7 7 6 6 6 6 6 6 7 6 6 6 6 5 6 5 5 6 6 6 6 6 6 6 6 6 6 6 6 5 5
1 1 2 1 1 1 1 2 2 3 3 4 3 4 4 4 4 4 5 5 5 5 6 5 5 4 4 5 7 7 6 4 5 5 6 5 6 5 5 3 2 3 3 3 3 3 3 4 4 4 3 4 4 4 5 5 6 6 6 6 6 7 7 7 7 7 7 6 6 6 6 6 6 6 6 7 5 6 6 5 6 6 6 5 5
2 1 1 1 1 1 1 1 2 2 4 4 2 3 5 4 5 6 5 6 6 6 6 5 5 4 4 5 5 6 5 4 4 5 6 6 5 5 4 3 4 4 4 4 3 3 3 4 4 4 5 5 5 5 5 5 5 6 6 7 7 7 8 9 8 6 6 6 6 6 6 6 6 6 6 6 5 5 6 6 5 6 6 5 5
2 2 3 1 2 2 2 1 3 2 2 3 4 4 3 3 4 4 6 5 5 5 5 5 4 4 5 5 5 4 4 3 4 4 3 4 4 4 3 3 3 4 4 4 4 4 4 4 5 5 6 5 5 5 5 5 5 5 5 6 8 8 7 6 5 5 6 6 7 6 6 6 6 7 7 6 6 5 6 6 5 6 6 6 6
2 2 1 2 2 3 3 3 1 1 1 1 2 2 2 4 3 3 4 5 5 5 5 4 4 5 5 5 4 4 3 2 1 2 2 2 2 2 2 3 3 3 3 3 3 4 4 5 5 5 6 5 4 5 5 5 4 5 5 6 7 7 7 5 5 6 6 6 6 5 6 6 6 6 7 6 6 6 6 7 6 6 6 6 6
2 2 1 2 1 2 1 2 1 2 2 2 1 2 3 3 2 3 4 3 3 4 4 3 3 3 2 3 3 3 2 2 1 1 2 2 2 2 2 2 3 3 3 3 3 4 4 4 5 5 5 5 5 5 5 5 4 5 5 6 6 7 7 6 6 6 6 5 5 6 7 7 6 6 6 7 7 6 6 7 5 5 6 6 7
2 2 1 1 1 1 3 2 4 2 3 2 1 2 3 2 2 2 2 3 3 3 3 3 3 2 3 3 2 2 1 1 2 2 3 3 2 2 2 2 3 3 3 4 4 4 4 4 4 5 5 5 5 5 5 4 5 5 6 6 7 10 10 9 7 6 6 6 6 6 6 6 7 7 7 7 7 6 7 6 5 6 6 6 7
1 1 1 1 2 1 2 2 1 1 2 2 2 2 1 2 2 2 2 2 2 2 1 2 2 2 3 3 2 3 3 3 4 4 3 3 3 3 3 4 4 4 4 4 4 4 4 4 4 5 5 5 5 5 5 6 6 6 6 7 10 12 11 12 12 11 8 6 7 6 6 7 6 6 7 7 7 7 7 7 6 7 6 7 7
3 2 2 1 1 1 1 1 1 1 1 1 2 2 2 2 3 2 3 3 4 3 3 2 2 2 2 2 2 3 3 3 3 3 3 3 3 3 4 4 4 4 4 4 4 4 5 4 5 5 5 5 5 6 6 6 6 6 8 12 13 12 13 12 9 10 13 9 6 6 7 8 7 7 7 7 6 7 8 8 7 7 7 7 7
Wind_Direction
169 171 162 167 163 167 166 163 160 156 156 161 154 157 157 158 164 161 149 159 152 145 142 141 141 141 142 142 139 135 127 123 118 119 118 120 116 123 125 117 112 110 110 97 93 99 104 106 106 102 108 92 86 76 57 51 50 41 68 73 58 40 76 34 277 288 299 140 11 322 333 321 317 319 316 318 318 314 311 302 301 303 303 300 300
174 166 166 163 172 167 167 162 156 155 159 158 157 159 162 165 164 158 162 159 156 148 147 145 141 141 137 132 129 123 121 124 122 118 125 124 122 123 122 118 115 119 112 110 102 105 114 109 100 92 92 89 87 56 82 47 64 50 30 115 74 88 339 97 281 278 294 309 320 320 316 319 311 326 325 322 319 317 313 310 298 292 297 296 295
172 167 166 167 171 169 163 162 159 161 159 159 161 163 163 163 164 162 154 150 142 142 145 142 141 136 132 133 131 128 130 125 119 118 132 135 131 126 126 128 132 133 125 122 120 120 105 105 98 85 75 68 70 64 94 82 106 163 261 205 135 272 240 251 266 285 294 299 320 326 328 323 319 322 322 313 305 306 307 309 309 302 290 288 290
170 167 166 168 168 166 170 162 161 163 163 162 163 163 160 163 164 150 143 137 139 126 123 131 132 135 135 138 137 135 131 126 126 136 147 144 135 135 135 132 133 132 129 127 123 114 121 100 96 92 89 87 89 113 210 167 190 229 204 273 182 236 255 221 249 266 288 298 313 327 318 319 317 316 310 300 307 310 306 304 298 296 292 287 286
171 171 168 168 170 172 171 168 167 167 164 160 163 159 162 164 162 153 148 148 145 140 136 138 142 147 150 150 145 144 143 140 140 144 144 140 138 139 140 136 131 127 125 124 123 122 113 126 127 109 112 117 285 152 222 205 252 187 240 259 238 254 246 252 250 257 278 286 297 305 309 303 305 307 312 318 317 313 309 300 302 303 302 292 287
173 170 172 170 173 177 175 172 174 170 165 163 163 162 163 168 162 158 159 151 148 153 148 154 159 157 154 150 145 143 142 143 136 141 143 140 142 140 135 133 129 120 115 116 124 131 132 130 148 145 147 151 196 225 214 238 262 245 250 260 255 251 244 257 262 259 266 282 297 310 319 320 317 314 317 311 311 313 313 310 310 312 314 312 308
171 173 176 176 176 182 179 179 173 170 168 163 158 160 166 167 163 162 164 160 157 155 157 151 160 157 146 121 147 150 145 146 141 140 139 145 149 141 133 128 121 115 118 127 129 132 132 139 166 173 169 180 186 214 231 257 224 238 236 229 255 237 257 260 271 289 297 301 297 294 302 304 311 312 317 310 303 302 305 320 322 320 313 316 316
174 178 178 181 183 185 183 175 171 168 160 156 160 161 161 162 163 163 164 165 165 163 162 160 155 150 145 145 149 149 144 143 131 131 140 150 146 135 135 134 126 117 115 117 135 143 150 168 176 204 182 204 193 236 220 224 229 208 248 205 246 239 256 269 286 290 290 286 289 295 296 303 304 293 301 307 305 317 333 326 318 321 321 323 321
175 177 179 185 189 183 173 170 164 158 156 157 164 166 166 164 161 162 170 171 168 165 154 146 143 140 138 122 137 137 134 146 153 158 151 152 141 135 135 130 128 126 119 132 150 157 179 187 198 211 226 232 248 255 244 238 181 185 282 191 215 237 257 282 279 280 277 283 285 281 290 291 292 298 307 322 332 326 325 324 316 320 324 317 314
174 177 184 187 178 171 170 168 165 160 162 169 172 169 167 167 166 168 173 170 160 152 144 140 144 141 142 125 128 140 157 165 181 174 166 149 141 134 123 123 126 130 145 167 190 195 193 200 223 236 247 263 285 291 294 300 296 271 201 202 218 221 251 254 261 263 276 283 284 289 291 291 306 316 323 325 321 320 323 329 322 321 317 312 306
178 181 184 176 164 159 166 174 169 172 174 170 171 172 169 166 166 167 163 159 155 150 147 148 152 152 146 138 155 171 171 174 187 176 163 148 137 132 129 130 127 142 178 187 194 209 217 201 194 237 250 303 309 290 295 304 307 295 294 291 279 243 218 257 264 262 267 274 288 289 290 306 320 329 322 319 323 330 326 322 320 320 322 324 319
180 180 175 167 166 170 175 174 175 178 172 176 171 169 164 163 167 165 160 156 156 150 152 156 154 159 163 165 172 179 160 193 189 179 165 152 139 133 129 137 152 180 195 205 205 201 205 205 203 186 178 213 228 240 299 301 294 289 289 286 283 279 276 267 276 286 287 287 292 309 322 316 316 319 321 332 328 323 322 321 319 320 318 316 312
175 176 176 174 173 173 172 172 176 177 177 169 165 164 166 166 165 167 173 165 151 163 167 160 170 172 173 172 181 181 181 198 192 182 169 159 150 136 141 143 168 197 202 206 208 205 200 200 197 192 202 248 268 233 217 262 291 292 282 283 282 281 283 291 295 294 302 313 321 321 320 314 313 319 331 327 326 317 317 315 318 316 314 311 311
180 179 173 174 172 174 174 171 174 174 168 168 168 170 168 177 173 166 156 156 169 170 167 168 171 182 185 183 181 186 191 205 194 183 175 167 162 150 150 159 178 198 208 210 214 211 203 200 202 221 224 224 220 223 217 223 241 267 271 266 259 270 277 281 287 294 302 313 319 305 319 337 321 317 322 323 317 312 314 312 314 316 319 311 312
182 177 176 175 173 173 172 173 174 167 170 174 175 177 177 171 170 172 171 176 176 179 179 181 190 186 187 183 187 192 198 205 193 187 182 179 179 167 156 161 174 200 211 215 215 213 194 189 196 220 226 229 219 216 209 224 232 237 243 250 252 251 246 257 262 266 299 312 299 321 327 325 314 312 312 314 312 308 304 307 324 320 313 316 305
179 174 178 176 174 176 176 174 170 170 173 176 180 182 180 181 177 171 169 179 186 171 187 192 191 190 189 188 188 200 202 203 195 191 186 186 187 162 158 170 173 195 207 215 214 199 197 201 209 223 231 230 248 251 247 227 223 233 241 250 239 236 233 236 286 308 311 304 312 323 317 309 310 310 313 315 315 310 316 325 316 317 322 314 314
184 183 185 183 182 176 174 172 175 173 173 177 186 186 185 184 180 171 176 182 183 190 195 196 194 192 193 192 197 203 197 203 196 192 187 186 184 144 166 167 182 194 201 209 217 207 211 210 210 213 222 231 248 256 255 260 257 255 254 241 235 171 240 285 308 314 315 312 317 320 317 317 313 313 317 321 317 326 342 328 318 323 319 318 313
186 187 189 184 179 173 174 175 175 175 176 187 190 193 191 188 184 176 182 182 193 200 193 193 199 199 197 201 201 201 197 200 196 191 189 189 179 161 168 174 189 200 206 217 212 224 211 223 221 208 219 229 248 253 256 260 261 256 242 200 207 228 256 222 24 310 318 335 328 325 318 312 317 320 321 321 324 333 345 316 310 319 309 309 307
190 192 186 174 173 171 172 176 180 182 188 192 191 191 190 189 182 178 196 195 200 190 189 196 200 202 205 207 215 220 199 196 196 192 190 191 180 156 170 175 193 199 191 214 221 207 228 232 232 224 211 224 244 250 255 253 248 231 157 170 245 242 249 185 191 219 292 315 317 330 312 315 315 306 301 316 324 331 316 307 316 319 310 308 308
190 173 171 173 171 175 178 182 186 186 191 189 190 196 185 175 185 190 195 196 193 186 190 198 200 207 196 200 211 220 212 202 205 194 192 192 188 164 175 168 202 203 199 202 209 226 222 231 240 236 234 239 245 250 252 252 245 142 148 173 217 270 178 165 193 198 242 264 278 281 284 293 298 303 300 299 303 299 307 312 304 305 297 302 303
165 176 169 171 177 182 184 186 188 191 188 188 186 184 184 188 179 183 190 188 180 185 192 200 205 211 193 202 205 224 221 211 220 203 196 195 197 177 186 194 200 193 195 201 205 210 225 228 228 239 238 239 244 247 251 249 249 161 173 169 199 260 127 118 243 356 206 249 281 296 294 299 294 296 296 293 293 289 285 304 289 285 292 294 299
165 169 178 181 182 183 185 187 188 186 176 164 171 182 177 169 177 179 175 179 190 198 193 197 208 215 200 200 208 218 225 222 217 220 202 200 202 197 177 200 190 184 188 205 208 212 208 215 223 233 234 238 240 245 246 244 245 150 209 248 287 318 120 131 164 158 14 354 326 309 301 302 301 302 296 289 284 288 287 283 292 287 278 275 282
169 172 175 177 180 181 181 179 178 173 174 177 176 182 172 172 174 168 173 183 194 201 202 200 205 218 217 217 215 217 216 228 218 226 220 208 207 208 201 186 202 188 194 206 208 207 198 212 228 236 233 235 239 239 246 244 238 157 237 270 286 112 110 128 103 40 358 330 310 294 289 292 298 297 300 296 292 292 290 290 286 283 279 271 273
157 166 173 175 171 175 177 176 177 175 174 171 176 173 174 175 169 178 179 184 193 204 211 201 207 220 223 228 222 219 215 205 231 223 225 222 215 213 215 203 201 195 192 211 199 193 198 211 218 233 236 235 238 241 242 245 160 219 247 275 122 111 85 87 52 53 23 303 283 284 281 279 280 284 285 288 294 299 295 291 287 285 283 282 282
157 171 172 171 172 171 168 174 177 176 172 170 175 177 173 166 177 185 178 190 195 206 213 194 210 219 222 229 227 217 210 212 216 231 225 223 223 220 218 219 215 207 202 201 198 197 208 216 224 231 235 236 235 244 239 178 194 197 234 227 120 89 109 125 169 116 274 267 264 265 273 266 263 270 283 295 297 298 292 288 283 275 276 275 275
166 172 172 171 173 164 169 175 175 173 172 180 186 184 179 181 187 183 186 198 199 206 209 198 213 216 225 230 228 218 203 206 219 216 231 227 227 225 223 223 222 219 213 185 195 203 215 223 225 230 233 237 236 133 141 213 194 183 160 114 113 128 134 146 181 192 237 252 257 263 267 280 282 282 288 293 296 292 300 301 312 304 309 317 320
165 166 170 171 164 168 171 174 172 171 177 179 183 180 178 182 185 185 191 196 202 208 210 205 213 216 225 230 225 209 209 217 214 207 209 221 228 225 226 227 224 223 226 207 199 205 213 216 217 226 212 202 180 184 150 156 102 95 95 112 129 149 176 181 191 209 226 241 261 264 267 273 288 301 298 301 296 291 290 295 302 301 318 322 318
166 174 172 167 169 172 179 171 171 178 185 181 183 187 190 186 190 197 193 196 197 208 206 211 214 215 223 225 217 214 226 221 216 205 202 210 216 213 215 215 210 210 211 210 202 185 173 206 209 195 139 117 99 42 75 76 158 162 133 125 155 178 208 222 224 185 224 221 252 276 286 289 291 289 296 293 281 284 288 292 290 300 314 325 332
157 157 157 157 172 175 176 174 183 182 186 196 207 197 188 191 202 216 218 200 199 200 202 215 218 218 215 216 205 219 226 225 226 200 210 208 204 195 200 205 203 205 205 192 154 152 161 186 188 193 194 201 214 206 209 223 259 200 173 203 227 223 222 160 234 247 230 215 254 259 272 287 287 287 289 289 280 282 295 296 280 280 305 310 298
149 163 167 173 170 170 180 184 185 185 186 195 201 234 251 223 217 211 219 208 220 228 216 219 218 200 216 228 204 212 222 234 191 200 217 221 220 216 214 208 205 198 196 201 183 184 197 200 210 209 214 212 218 222 226 220 227 232 244 221 203 209 217 228 224 232 222 222 235 254 266 277 283 286 285 285 292 285 283 299 300 313 316 320 320
166 167 170 186 184 184 179 184 188 191 192 189 196 208 231 249 234 233 231 216 219 225 230 235 231 209 199 233 228 235 249 246 205 204 212 217 217 214 211 207 206 202 199 198 205 196 197 206 213 209 214 213 216 215 213 213 218 215 226 216 212 213 231 220 228 214 219 228 239 240 254 257 270 280 281 286 290 295 295 282 281 301 298 297 308
177 190 192 184 177 181 183 176 171 180 193 189 193 197 207 228 256 238 233 231 227 227 233 237 239 238 226 220 210 238 239 239 236 227 218 216 214 212 209 206 205 202 201 198 208 211 197 206 209 211 206 212 219 216 216 216 220 216 217 210 237 216 219 231 221 194 214 218 233 248 246 247 256 269 276 283 290 292 298 301 298 297 294 286 272
172 150 146 144 153 160 165 172 182 185 191 193 200 197 203 215 230 250 236 236 237 239 238 238 238 240 241 242 235 222 216 222 232 232 226 220 215 211 209 206 203 201 197 204 208 212 205 205 211 209 201 213 213 210 214 211 209 209 199 213 236 224 207 224 205 192 204 210 218 238 240 249 254 262 270 280 289 291 297 294 295 291 285 295 294
161 162 166 169 162 178 181 189 187 199 196 193 199 198 219 221 239 261 233 292 269 250 244 241 240 240 242 242 241 241 236 227 226 228 226 221 215 213 209 208 207 204 201 203 203 209 206 210 213 209 206 207 208 201 209 207 202 205 208 220 229 236 224 200 202 220 214 228 234 247 251 252 249 255 269 268 273 279 285 289 294 295 294 284 291
177 160 159 160 176 183 186 184 191 185 182 193 199 205 215 216 217 232 230 227 235 239 245 241 238 236 238 242 243 243 241 238 231 229 227 222 216 210 204 205 208 210 211 211 210 213 202 205 206 206 196 200 200 194 205 201 195 194 207 219 227 231 224 208 215 215 216 218 223 235 236 242 245 244 251 273 284 282 276 281 279 273 276 287 292
171 164 155 164 159 167 168 179 174 185 193 202 193 202 199 197 212 230 229 237 243 254 265 237 235 243 241 241 239 239 241 237 231 229 227 222 217 206 203 208 203 211 211 212 209 210 202 197 188 194 191 198 188 195 202 196 199 200 199 202 222 220 219 223 222 216 222 212 223 229 238 238 237 245 259 265 258 263 270 275 280 280 272 267 279
168 175 163 158 152 150 157 161 176 180 188 175 180 188 199 207 216 214 220 228 237 244 247 264 279 274 261 255 246 242 238 234 231 228 226 223 216 210 211 208 209 207 211 210 186 175 191 195 181 186 183 194 193 194 187 200 198 196 196 198 207 218 225 221 219 211 214 220 229 229 235 243 244 242 236 255 266 260 265 271 276 279 276 282 294
169 172 173 155 156 157 160 173 183 176 183 182 187 191 199 206 205 211 217 230 230 236 246 244 227 230 226 235 226 230 236 235 231 229 227 222 216 213 215 213 210 208 212 209 200 186 195 181 178 188 188 189 193 186 191 197 192 190 200 206 204 217 230 228 232 218 212 217 226 222 224 241 237 236 233 243 257 269 270 266 270 276 281 281 274
161 167 170 171 170 175 180 176 175 179 190 189 192 187 205 200 206 211 221 224 230 233 237 230 229 230 230 204 210 221 217 225 218 215 207 209 210 213 215 211 202 206 198 197 177 190 198 199 190 189 185 187 194 192 189 197 183 197 199 197 209 218 229 232 229 225 224 229 238 229 225 239 240 231 227 237 254 257 268 270 269 264 274 279 275
168 185 181 180 181 181 173 183 181 185 193 185 201 195 204 205 211 213 213 213 228 228 226 229 233 231 220 200 202 198 213 219 218 216 209 208 204 200 200 199 193 193 189 188 188 191 198 201 188 191 198 195 196 196 193 191 194 200 186 196 202 218 223 220 226 222 227 223 227 231 224 232 233 232 237 236 246 255 260 264 260 262 264 277 288
169 169 183 192 185 183 167 176 187 199 193 197 197 196 211 212 212 211 210 223 228 231 232 234 240 232 212 221 219 208 217 226 224 218 217 211 200 188 189 181 169 174 179 188 190 186 192 191 189 193 195 194 192 194 192 191 192 186 192 200 204 220 227 224 219 224 226 224 225 227 228 225 228 221 242 243 246 251 249 256 278 288 284 280 279
144 159 169 198 185 176 186 202 205 200 196 197 200 206 213 211 208 205 215 222 226 228 238 243 239 228 229 225 227 226 224 230 228 220 208 207 205 207 192 190 180 180 185 182 176 182 183 190 189 187 191 197 188 197 183 194 194 196 198 199 211 218 225 231 223 220 218 225 225 227 228 225 225 223 236 246 241 240 256 266 269 272 268 267 273
134 155 178 154 172 187 198 213 182 184 199 207 219 216 212 204 208 211 221 225 227 228 237 244 245 224 229 235 234 233 234 218 202 213 212 213 220 233 222 216 202 174 198 106 164 179 189 190 196 198 203 204 199 195 195 202 194 194 195 204 210 216 226 232 229 224 217 221 228 228 223 226 231 234 235 242 250 254 257 259 263 259 261 269 271
118 116 127 156 170 162 158 152 177 198 200 209 202 202 201 203 206 209 214 224 225 229 230 238 234 215 230 244 239 235 238 199 190 200 208 213 213 214 217 207 183 181 198 207 211 182 182 193 201 208 200 209 207 201 196 193 180 186 192 199 210 217 223 229 226 225 214 216 223 225 227 225 227 227 235 240 234 241 247 247 252 255 260 258 259
132 144 150 142 131 159 195 164 179 190 191 184 193 206 196 196 208 213 210 218 225 223 227 227 217 205 211 221 228 226 225 199 200 204 213 210 211 208 196 194 188 190 187 197 170 168 176 188 200 199 211 212 201 199 203 197 192 196 194 194 204 217 223 222 224 217 202 203 219 223 224 216 225 222 232 236 232 236 247 245 244 258 259 258 259
150 151 141 148 139 149 158 197 186 177 185 190 199 209 218 211 215 213 218 220 219 218 224 220 216 210 210 215 219 226 226 202 208 210 209 206 203 206 188 181 167 175 186 186 169 173 194 193 200 211 220 220 203 201 206 207 202 206 207 209 214 223 227 224 206 193 200 204 214 215 223 220 225 219 229 230 232 231 239 247 242 243 246 257 256
127 128 128 139 160 164 169 162 147 174 184 207 199 211 221 226 225 229 227 224 227 227 223 224 216 218 215 213 215 223 208 202 196 207 214 208 178 158 133 135 143 162 173 171 171 189 195 205 208 215 225 230 221 216 214 213 211 213 215 220 225 229 233 223 208 210 212 210 207 207 215 220 228 228 233 233 235 232 235 239 231 240 241 249 257
113 107 118 126 127 140 153 149 168 174 178 202 202 212 219 223 226 229 234 237 234 231 233 230 224 221 198 202 200 180 204 203 189 202 231 218 153 129 156 175 183 200 187 194 208 209 207 215 216 218 227 235 232 232 228 220 223 219 223 223 225 226 220 205 216 217 219 208 203 212 213 220 228 227 226 225 233 232 239 245 245 247 247 248 253
103 116 120 129 143 160 165 174 180 189 196 198 197 218 214 219 227 231 229 228 230 233 225 225 223 193 201 189 173 180 163 132 163 202 231 249 246 232 201 204 215 211 208 231 222 213 213 216 218 219 221 228 232 232 235 230 229 229 228 226 228 230 224 212 215 221 203 202 212 212 215 219 223 227 224 228 232 228 234 241 239 244 249 250 253
103 110 120 125 127 159 146 146 170 178 180 173 190 217 228 210 236 236 234 228 230 225 229 215 210 194 159 175 160 192 185 207 219 220 223 231 231 226 214 208 211 216 218 232 232 219 218 218 218 224 225 230 234 237 234 235 235 234 234 230 233 232 230 226 224 221 208 214 209 209 209 220 220 225 225 227 229 230 234 239 236 240 244 245 246
101 98 101 105 135 128 133 140 162 165 175 183 195 204 221 223 226 223 217 216 222 228 218 212 215 215 226 227 216 214 217 226 225 229 228 232 232 220 223 225 228 227 232 232 239 227 220 217 216 219 224 229 230 235 235 235 237 236 237 241 241 239 236 231 228 228 222 212 205 205 210 216 220 223 226 224 224 226 231 236 237 236 240 241 244